Torna al catalogo

OPS 4682 DEB

AttivoPO
NORAD 38394·DEBRIS·🇺🇸 United States

Lanciato Apr 3, 1965 da Vandenberg Space Force Base

Loading…

Prossimi Passaggi (prossime 24 ore)

TLE

In scadenzaSource: Space-Track

Epoca: Sep 5, 2026, 08:49 UTC

1 38394U 65027CX  26248.36752557  .00000984  00000-0  32281-2 0  9998
2 38394  90.2738  26.2911 0038596 136.0216 224.3988 13.00155758 75136

Traccia OPS 4682 DEB in tempo reale con AllMySat

Download on the App Store